San Luis Obispo, CA

4:20 PM PDT on September 25, 2017 (GMT -0700)
San Luis Obispo County-McChesney

Weather History for KSBP - January, 2014

Change the Weather History Date:

Wednesday, January 15, 2014

  Actual Average Record
Temperature  
Mean Temperature 65 °F -  
Max Temperature 86 °F 65 °F 86 °F (2014)
Min Temperature 44 °F 43 °F 26 °F (2007)
Growing Degree Days 15 (Base 50)    
Moisture  
Dew Point 23 °F    
Average Humidity 28    
Maximum Humidity 42    
Minimum Humidity 8    
Precipitation  
Precipitation 0.00 in - - ()
Sea Level Pressure  
Sea Level Pressure 30.20 in    
Wind  
Wind Speed 1 mph (NW)    
Max Wind Speed 12 mph    
Max Gust Speed -    
Visibility 10 miles    
Events      
Averages and records for this station are not official NWS values.
T = Trace of Precipitation, MM = Missing Value Source: NWS Daily Summary

Daily Weather History Graph

Daily Weather History Graph

Search for Another Location

Airport or City:

Trip Planner

Search our weather history database for the weather conditions in past years. The results will help you decide how hot, cold, wet, or windy it might be!

Date:

Astronomy

Jan. 15, 2014 Rise Set
Actual Time 7:10 AM PST 5:13 PM PST
Civil Twilight 6:43 AM PST 5:41 PM PST
Nautical Twilight 6:11 AM PST 6:12 PM PST
Astronomical Twilight 5:41 AM PST 6:43 PM PST
Moon 5:13 PM PST (1/15) 6:31 AM PST (1/15)
Length of Visible Light 10h 58m
Length of Day
10h 03m
Full, 100% of the Moon is Illuminated
Jan 15
Full
Jan 15
Full
Jan 23
Last Quarter
Jan 30
New
Feb 6
First Quarter

Hourly Weather History & Observations

Time (PST) Temp. Dew Point Humidity Pressure Visibility Wind Dir Wind Speed Gust Speed Precip Events Conditions
12:56 AM 51.1 °F 23.0 °F 33% 30.25 in 10.0 mi Calm Calm - N/A   Clear
1:56 AM 48.9 °F 21.9 °F 35% 30.25 in 10.0 mi Calm Calm - N/A   Clear
2:56 AM 46.0 °F 21.9 °F 39% 30.24 in 10.0 mi Calm Calm - N/A   Clear
3:56 AM 46.9 °F 21.0 °F 36% 30.24 in 10.0 mi Calm Calm - N/A   Clear
4:56 AM 46.0 °F 21.0 °F 37% 30.23 in 10.0 mi Calm Calm - N/A   Clear
5:56 AM 44.1 °F 21.0 °F 40% 30.24 in 10.0 mi Calm Calm - N/A   Clear
6:56 AM 44.1 °F 21.9 °F 42% 30.23 in 10.0 mi Calm Calm - N/A   Clear
7:56 AM 46.9 °F 21.9 °F 37% 30.25 in 10.0 mi Calm Calm - N/A   Clear
8:56 AM 57.0 °F 21.9 °F 26% 30.26 in 10.0 mi Calm Calm - N/A   Clear
9:56 AM 69.1 °F 21.9 °F 17% 30.26 in 10.0 mi Calm Calm - N/A   Clear
10:56 AM 77.0 °F 24.1 °F 14% 30.24 in 10.0 mi Calm Calm - N/A   Clear
11:56 AM 82.0 °F 21.9 °F 11% 30.20 in 10.0 mi Calm Calm - N/A   Clear
12:56 PM 86.0 °F 19.0 °F 8% 30.16 in 10.0 mi Variable 3.5 mph - N/A   Clear
1:56 PM 84.9 °F 21.9 °F 10% 30.14 in 10.0 mi WNW 9.2 mph - N/A   Clear
2:56 PM 82.9 °F 23.0 °F 11% 30.14 in 10.0 mi WNW 8.1 mph - N/A   Clear
3:56 PM 79.0 °F 28.9 °F 16% 30.14 in 10.0 mi WNW 8.1 mph - N/A   Clear
4:56 PM 70.0 °F 30.0 °F 23% 30.14 in 10.0 mi NW 11.5 mph - N/A   Clear
5:56 PM 66.0 °F 28.9 °F 25% 30.15 in 10.0 mi North 3.5 mph - N/A   Clear
6:56 PM 60.1 °F 27.0 °F 28% 30.16 in 10.0 mi Calm Calm - N/A   Clear
7:56 PM 55.9 °F 26.1 °F 32% 30.17 in 10.0 mi SE 3.5 mph - N/A   Clear
8:56 PM 53.1 °F 23.0 °F 31% 30.16 in 10.0 mi Calm Calm - N/A   Clear
9:56 PM 50.0 °F 23.0 °F 35% 30.17 in 10.0 mi Calm Calm - N/A   Clear
10:56 PM 48.9 °F 24.1 °F 38% 30.17 in 10.0 mi Calm Calm - N/A   Clear
11:56 PM 46.9 °F 21.9 °F 37% 30.16 in 10.0 mi Calm Calm - N/A   Clear